Location: Stara Lesna
(49.1528°N, 20.2911°E)
Time: 00:34:20
(UTC+02:00)

Cosmos 1943 Rocket - Pass Details

Date: 21 September 2019
Orbit: 811 x 845 km, 71.0° (Epoch: 20 October)

Event Time Altitude Azimuth Distance (km) Brightness Sun altitude
Exits shadow 02:49:39 42° 92° (E) 1,154 3.0 -31.9°
Drops below altitude 10° 02:54:19 10° 39° (NE) 2,431 5.5 -31.4°
Sets 02:56:51 0° 33° (NNE) 3,373 6.4 -31.1°
